Regional Weather Roundup
Issued by NWS Grand Forks, ND

Home | Current Version | Previous Version | Text Only | Print | Product List | Glossary Off
Versions: 1 2 3 4 5 6 7 8 9 10 11 12 13 14 15 16 17 18 19 20 21 22 23 24 25 26 27 28 29 30 31 32 33 34 35 36 37 38 39 40 41 42 43 44 45 46 47 48 49 50

000
ASUS43 KFGF 261810
RWRFGF
PRAIRIE TO PINES  WEATHER ROUNDUP
NATIONAL WEATHER SERVICE EASTERN NORTH DAKOTA/GRAND FORKS ND
1200 PM CST WED NOV 26 2014

 **SATELLITE DATA USED TO AUGMENT SKY COVER AT AUTOMATED STATIONS**
 *****  WEATHER ACROSS EASTERN NORTH DAKOTA  *****

CITY           SKY/WX    TMP DP  RH WIND       PRES   REMARKS
GRAND FORKS    FAIR       2  -6  69 N15       30.45S WCI -17
6HR MIN TEMP:  -3; 6HR MAX TEMP:   2;

GRAND FRKS AFB FAIR       1  -7  67 N13       30.45S WCI -16
GRAND FRKS NWS   N/A      3 N/A N/A N10         N/A  WCI -12
DEVILS LAKE    FAIR       0 -13  55 N13       30.39R WCI -18
6HR MIN TEMP:   0; 6HR MAX TEMP:   1;

FARGO          PTSUNNY    5  -5  63 N21       30.39F WCI -16
WAHPETON ARPT  CLOUDY     9   1  72 N17       30.36R WCI -10
$$

 ***** WEATHER ACROSS CENTRAL AND WESTERN NORTH DAKOTA  *****

CITY           SKY/WX    TMP DP  RH WIND       PRES   REMARKS
BISMARCK       CLOUDY    11   3  70 CALM      30.38S
6HR MIN TEMP:   6; 6HR MAX TEMP:  11; 6HR PCP:  0.02;

MINOT          PTSUNNY    4  -3  73 N6        30.40R WCI  -7
6HR MIN TEMP:   2; 6HR MAX TEMP:   6; 6HR PCP:  0.01;

JAMESTOWN      CLOUDY     4  -4  69 N9        30.37S WCI -10
6HR MIN TEMP:   1; 6HR MAX TEMP:   4; 6HR PCP: TRACE;

MINOT AFB      CLOUDY     2  -3  79 N6        30.40S WCI  -9
GARRISON         N/A      8   2  76 N5        30.36S WCI   0
WILLISTON      CLOUDY    11   4  73 N12       30.38R WCI  -3
6HR MIN TEMP:   9; 6HR MAX TEMP:  14; 6HR PCP: TRACE;

DICKINSON      CLOUDY    19  13  77 N6        30.26S WCI  11
6HR MIN TEMP:  18; 6HR MAX TEMP:  20; 6HR PCP: TRACE;

HETTINGER      CLOUDY    24  19  81 NE7       30.26R HAZE    WCI  16
6HR MIN TEMP:  20; 6HR MAX TEMP:  24; 6HR PCP: TRACE;

$$

 *****  OTHER AIRPORT OBSERVATIONS IN OUR AREA  *****

CITY           SKY/WX    TMP DP  RH WIND       PRES   REMARKS
WALHALLA         N/A      0  -9  65 N12       30.48S WCI -18
GRAFTON AIRPOR FAIR       0  -8  71 N15       30.47S WCI -20
VALLEY CITY AR CLOUDY     1  -6  71 N12       30.38R WCI -15
CANDO          FAIR       0  -8  71 N7        30.42S WCI -13
CAVALIER APRT  FAIR       0  -9  65 N15       30.47F WCI -20
GWINNER        MOCLDY     9  -4  56 N15       30.38S WCI  -8
SHEYENNE NWR     N/A      5  -7  58 N8        29.95S WCI  -8
ROLLA          FAIR      -2  -9  71 N5        30.39S WCI -12
 ***** THE ABOVE OBSERVATIONS ARE NON NWS ARE NOT QUALITY
       CONTROLLED AND MAY MIS-REPORT RAIN FOR SNOW...
$$

  *****  WEATHER ACROSS NORTHERN MINNESOTA  *****

CITY           SKY/WX    TMP DP  RH WIND       PRES   REMARKS
FLAG ISLAND    FAIR      -2 -11  65 NW10      30.37R WCI -19
WARROAD        FAIR       0  -9  65 NW6       30.37F WCI -12
ROSEAU         FAIR       0  -9  65 N8        30.38F WCI -15
HALLOCK        FAIR      -2  -9  71 N14G20    30.45S WCI -21
THF RVR FALLS  FAIR       1  -9  60 N14       30.37S WCI -17
6HR MIN TEMP:   0; 6HR MAX TEMP:   1;

BAUDETTE       FAIR      -1  -8  72 NW14      30.34R WCI -20
6HR MIN TEMP:  -3; 6HR MAX TEMP:   2;

WASKISH        FAIR       7   0  72 CALM      30.31S
CROOKSTON      FAIR       1  -6  71 N16       30.43S WCI -18
STEPHEN NDAWN    N/A      0  -8  71 N12         N/A  WCI -18
GREENBUSH NDAW   N/A     -2  -8  78 N12         N/A  WCI -20
$$
  *****  WEATHER ACROSS CENTRAL AND WEST MINNESOTA  *****

CITY           SKY/WX    TMP DP  RH WIND       PRES   REMARKS
FOSSTON        FAIR       7  -6  56 N13       30.34S WCI  -9
BEMIDJI        FAIR       6  -4  62 NW10      30.28S WCI  -9
PARK RAPIDS    PTSUNNY   13   4  67 N14       30.24F WCI  -2
6HR MIN TEMP:  11; 6HR MAX TEMP:  17; 6HR PCP: TRACE;

ELBOW LAKE       N/A     13   8  80 NW15      30.27R WCI  -3
WADENA         PTSUNNY   18   9  68 N12       30.24S WCI   5
DETROIT LAKES  FAIR       9   3  78 N9G18     30.30S WCI  -5
MOORHEAD       FAIR       5   0  78 N18       30.38F WCI -15
FERGUS FALLS   FAIR      10   1  67 N13G21    30.33S WCI  -5
MORRIS MN      CLOUDY    12   7  79 NW20      30.26S WCI  -6
STAPLES        FAIR      18   9  68 N9        30.23R WCI   6
$$
  *****  WEATHER ELSEWHERE ACROSS MINNESOTA  *****

CITY           SKY/WX    TMP DP  RH WIND       PRES   REMARKS
DULUTH         FLURRIES  19  10  68 NW12      30.16S WCI   7
6HR MIN TEMP:  17; 6HR MAX TEMP:  20; 6HR PCP:  0.01;

INTRNTL FALLS  FAIR       6  -4  63 N9        30.29R WCI  -8
6HR MIN TEMP:   3; 6HR MAX TEMP:  10;

ELY            LGT SNOW  14   9  79 N6        30.18S WCI   5
CLOQUET        CLOUDY    19  12  73 N9        30.18R WCI   9
WHEATON        FAIR       7   1  78 NW18      30.35R WCI -12
BRAINERD       FAIR      18   9  68 N9        30.22F WCI   7
6HR MIN TEMP:  15; 6HR MAX TEMP:  18; 6HR PCP: TRACE;

HIBBING        FLURRIES  15   6  67 NW12      30.21R WCI   2
6HR MIN TEMP:  14; 6HR MAX TEMP:  18; 6HR PCP: TRACE;

ALEXANDRIA     CLOUDY    19  11  70 N12       30.22F WCI   7
6HR MIN TEMP:  17; 6HR MAX TEMP:  20; 6HR PCP: TRACE;

SAINT CLOUD    CLOUDY    24  15  68 N13       30.20S WCI  12
6HR MIN TEMP:  22; 6HR MAX TEMP:  25; 6HR PCP:  0.01;

MINNEAPOLIS    LGT SNOW  26  21  81 N9        30.17F WCI  17
6HR MIN TEMP:  22; 6HR MAX TEMP:  26; 6HR PCP:  0.17;

$$

  *****  WEATHER ACROSS SOUTH DAKOTA  *****

CITY           SKY/WX    TMP DP  RH WIND       PRES   REMARKS
SIOUX FALLS    FAIR      21  14  74 N18       30.21R WCI   6
6HR MIN TEMP:  21; 6HR MAX TEMP:  29; 6HR PCP: TRACE;

BROOKINGS      NOT AVBL
WATERTOWN      FAIR      10   4  76 N16       30.25R WCI  -7
6HR MIN TEMP:   9; 6HR MAX TEMP:  19; 6HR PCP: TRACE;

HURON          SUNNY     11   2  67 N22       30.33S WCI  -8
6HR MIN TEMP:  10; 6HR MAX TEMP:  19; 6HR PCP: TRACE;

SISSETON         N/A      8   3  80 N22       30.33R WCI -12
ABERDEEN       PTSUNNY    8  -2  63 N16       30.37S WCI -10
6HR MIN TEMP:   5; 6HR MAX TEMP:  11;

MITCHELL       MOSUNNY   16   9  74 N14       30.32S WCI   2
PIERRE         CLOUDY    21  13  71 NE6       30.33S WCI  13
6HR MIN TEMP:  18; 6HR MAX TEMP:  21;

MOBRIDGE       LGT SNOW  14   7  73 N5        30.34S WCI   6
RAPID CITY     CLOUDY    27  22  81 S8        30.24S WCI  19
6HR MIN TEMP:  24; 6HR MAX TEMP:  27;

$$

  *****  SOME WEATHER IN NEARBY STATES *****

CITY           SKY/WX    TMP DP  RH WIND       PRES   REMARKS
GLASGOW MT     CLOUDY    24  18  77 E9        30.29R WCI  14
6HR MIN TEMP:  21; 6HR MAX TEMP:  24;

GREAT FALLS MT SNOW      30  29  96 E7        30.13S VSB 1/4 WCI  23
6HR MIN TEMP:  29; 6HR MAX TEMP:  30; 6HR PCP:  0.11;

CHEYENNE WY    MIX PCPN  25  22  88 S8        30.17S WCI  16
6HR MIN TEMP:  22; 6HR MAX TEMP:  25; 6HR PCP: TRACE;

SCOTTSBLUFF NE FLURRIES  31  27  85 W6        30.24F
6HR MIN TEMP:  29; 6HR MAX TEMP:  31; 6HR PCP:  0.03;

OMAHA NE       FLURRIES  31  26  82 N32G43    30.08R WCI  16
6HR MIN TEMP:  31; 6HR MAX TEMP:  39; 6HR PCP: TRACE;

DES MOINES IA  LGT SNOW  31  27  85 NE8       29.96R FOG     WCI  23
6HR MIN TEMP:  29; 6HR MAX TEMP:  31; 6HR PCP:  0.04;

DAVENPORT IA   FAIR      26  21  81 E10       30.06S WCI  16
6HR MIN TEMP:  19; 6HR MAX TEMP:  26;

CHICAGO IL     CLOUDY    27  20  75 SE7       30.12F WCI  19
6HR MIN TEMP:  18; 6HR MAX TEMP:  27;

EAU CLAIRE WI  CLOUDY    25  17  72 N5        30.15F WCI  19
6HR MIN TEMP:  20; 6HR MAX TEMP:  26;

LA CROSSE WI   CLOUDY    27  17  66 CALM      30.14S
6HR MIN TEMP:  20; 6HR MAX TEMP:  27;

$$

  *****  SOME NATIONAL WEATHER *****

CITY           SKY/WX    TMP DP  RH WIND       PRES   REMARKS
LA GUARDIA NY  LGTSLEET  34  32  93 N10G16    30.00F FOG
6HR MIN TEMP:  34; 6HR MAX TEMP:  44; 6HR PCP:  0.60;

RALEIGH NC     LGT RAIN  44  40  85 VRB7      29.91F
6HR MIN TEMP:  44; 6HR MAX TEMP:  47; 6HR PCP:  0.31;

ATLANTA GA     MOSUNNY   54  18  24 NW15      30.08F
6HR MIN TEMP:  42; 6HR MAX TEMP:  55;

NEW ORLEANS LA FAIR      63  35  35 S10       30.23F
6HR MIN TEMP:  38; 6HR MAX TEMP:  64;

OKLAHOMA CITY  PTSUNNY   54  30  40 N25       30.19R
6HR MIN TEMP:  40; 6HR MAX TEMP:  54;

ALBUQUERQUE NM MOSUNNY   49  14  24 S3        30.39F
6HR MIN TEMP:  29; 6HR MAX TEMP:  49;

SALT LAKE CITY MOSUNNY   52  30  43 SE8       30.40S
6HR MIN TEMP:  35; 6HR MAX TEMP:  52;

LOS ANGELES CA SUNNY     74  20  13 VRB3      30.24S


USA.gov is the U.S. government's official web portal to all federal, state and local government web resources and services.